SWA6132 KSTL-KCMH

Flight info

Callsign SWA6132
Flight time N/A
Altitude 35000
Route JHART7 KELLY JADUB DUBLN1
Aircraft B737/M-SDE2E3GIJ4RWZ/LB1D1

Departure

Time 2026-05-07 10:41
Airport St. Louis Lambert International Airport (KSTL)

Arrival

Time N/A
Airport John Glenn Columbus International Airport (KCMH)
Time Latitude Longitude Altitude Speed Heading
2026-05-07 10:33 38.74208 -90.36132 567 ft 0 kts 226°
2026-05-07 10:37 38.74209 -90.36131 568 ft 2 kts 224°
2026-05-07 10:38 38.74226 -90.36119 568 ft 2 kts 159°
2026-05-07 10:38 38.74235 -90.36125 572 ft 0 kts 124°
2026-05-07 10:38 38.74218 -90.36069 569 ft 20 kts 104°
2026-05-07 10:38 38.74170 -90.35903 573 ft 20 kts 119°
2026-05-07 10:39 38.74111 -90.35749 574 ft 19 kts 111°
2026-05-07 10:39 38.74041 -90.35602 575 ft 19 kts 124°
2026-05-07 10:39 38.73966 -90.35464 582 ft 19 kts 124°
2026-05-07 10:39 38.73902 -90.35323 579 ft 18 kts 122°
2026-05-07 10:40 38.73920 -90.35242 583 ft 1 kts 325°
2026-05-07 10:40 38.73994 -90.35209 583 ft 23 kts 10°
2026-05-07 10:40 38.74129 -90.35372 580 ft 57 kts 301°
2026-05-07 10:40 38.74531 -90.36177 570 ft 153 kts 303°
2026-05-07 10:41 38.75212 -90.37526 962 ft 204 kts 302°
2026-05-07 10:41 38.76127 -90.39134 1483 ft 241 kts 315°
2026-05-07 10:41 38.77553 -90.40329 1906 ft 251 kts 340°
2026-05-07 10:41 38.79298 -90.40518 2342 ft 257 kts 11°
2026-05-07 10:42 38.80896 -90.39497 2822 ft 262 kts 44°
2026-05-07 10:42 38.81794 -90.37496 3337 ft 263 kts 78°
2026-05-07 10:42 38.81746 -90.35166 4000 ft 265 kts 102°
2026-05-07 10:42 38.81309 -90.32845 4848 ft 270 kts 104°
2026-05-07 10:43 38.80746 -90.30552 5577 ft 276 kts 110°
2026-05-07 10:43 38.79966 -90.28280 6248 ft 281 kts 114°
2026-05-07 10:43 38.79077 -90.26030 6871 ft 285 kts 110°
2026-05-07 10:43 38.78757 -90.23551 7275 ft 283 kts 80°
2026-05-07 10:44 38.79116 -90.21107 7895 ft 279 kts 75°
2026-05-07 10:44 38.79499 -90.18614 8637 ft 290 kts 76°
2026-05-07 10:44 38.79894 -90.16070 9332 ft 293 kts 76°
2026-05-07 10:44 38.80319 -90.13479 9996 ft 299 kts 75°
2026-05-07 10:45 38.80788 -90.10850 10592 ft 307 kts 75°
2026-05-07 10:45 38.81279 -90.08120 11199 ft 322 kts 75°
2026-05-07 10:45 38.81791 -90.05261 11818 ft 337 kts 75°
2026-05-07 10:45 38.82330 -90.02267 12443 ft 352 kts 75°
2026-05-07 10:46 38.82895 -89.99147 13031 ft 367 kts 76°
2026-05-07 10:46 38.83518 -89.95861 13671 ft 389 kts 75°
2026-05-07 10:46 38.84183 -89.92418 14267 ft 405 kts 76°
2026-05-07 10:46 38.84849 -89.88867 14839 ft 412 kts 76°
2026-05-07 10:47 38.85529 -89.85267 15411 ft 417 kts 76°
2026-05-07 10:47 38.86209 -89.81677 16004 ft 422 kts 76°
2026-05-07 10:47 38.86907 -89.77990 16611 ft 429 kts 76°
2026-05-07 10:47 38.87620 -89.74240 17228 ft 436 kts 76°
2026-05-07 10:48 38.88346 -89.70433 17858 ft 442 kts 76°
2026-05-07 10:48 38.89082 -89.66575 18487 ft 448 kts 76°
2026-05-07 10:48 38.89830 -89.62661 19047 ft 454 kts 76°
2026-05-07 10:48 38.90563 -89.58701 19609 ft 458 kts 77°
2026-05-07 10:49 38.91296 -89.54689 20192 ft 463 kts 77°
2026-05-07 10:49 38.92046 -89.50630 20786 ft 469 kts 77°
2026-05-07 10:49 38.92802 -89.46586 21383 ft 474 kts 76°
2026-05-07 10:49 38.93585 -89.42441 21993 ft 479 kts 76°
2026-05-07 10:50 38.94378 -89.38261 22622 ft 484 kts 77°
2026-05-07 10:50 38.95151 -89.34027 23265 ft 490 kts 77°
2026-05-07 10:50 38.95928 -89.29736 23875 ft 496 kts 77°
2026-05-07 10:50 38.96720 -89.25398 24415 ft 501 kts 77°
2026-05-07 10:51 38.97521 -89.21015 24971 ft 506 kts 77°
2026-05-07 10:51 38.98322 -89.16592 25536 ft 510 kts 77°
2026-05-07 10:51 38.99124 -89.12140 26111 ft 513 kts 77°
2026-05-07 10:51 38.99931 -89.07655 26690 ft 516 kts 77°
2026-05-07 10:52 39.00746 -89.03142 27291 ft 518 kts 76°
2026-05-07 10:52 39.01592 -88.98621 27898 ft 520 kts 76°
2026-05-07 10:52 39.02427 -88.94154 28514 ft 521 kts 76°
2026-05-07 10:52 39.03271 -88.89617 29142 ft 521 kts 76°
2026-05-07 10:53 39.04104 -88.85076 29792 ft 521 kts 76°
2026-05-07 10:53 39.04894 -88.80524 30400 ft 521 kts 77°
2026-05-07 10:53 39.05672 -88.75979 30965 ft 519 kts 77°
2026-05-07 10:53 39.06485 -88.71460 31525 ft 517 kts 76°
2026-05-07 10:54 39.07310 -88.66966 32101 ft 514 kts 76°
2026-05-07 10:54 39.08124 -88.62495 32689 ft 511 kts 77°
2026-05-07 10:54 39.08906 -88.58048 33287 ft 507 kts 77°
2026-05-07 10:54 39.09683 -88.53640 33882 ft 502 kts 77°
2026-05-07 10:55 39.10457 -88.49279 34434 ft 496 kts 77°
2026-05-07 10:55 39.11219 -88.44977 34953 ft 490 kts 77°
2026-05-07 10:55 39.11976 -88.40671 35092 ft 498 kts 77°
2026-05-07 10:55 39.12737 -88.36324 35083 ft 509 kts 77°
2026-05-07 10:56 39.13524 -88.31820 35009 ft 522 kts 77°
2026-05-07 10:56 39.14333 -88.27219 35007 ft 533 kts 77°
2026-05-07 10:56 39.16005 -88.17736 35003 ft 553 kts 76°
2026-05-07 10:57 39.17743 -88.07901 35000 ft 572 kts 76°
2026-05-07 10:57 39.19519 -87.97731 34999 ft 589 kts 77°
2026-05-07 10:58 39.21264 -87.87280 34995 ft 604 kts 77°
2026-05-07 10:58 39.23046 -87.76660 34993 ft 615 kts 77°
2026-05-07 10:59 39.24949 -87.65835 34990 ft 621 kts 77°
2026-05-07 10:59 39.26793 -87.54913 34986 ft 625 kts 77°
2026-05-07 11:00 39.28330 -87.45773 34996 ft 627 kts 77°
2026-05-07 11:00 39.30188 -87.34763 34979 ft 628 kts 77°
2026-05-07 11:01 39.32041 -87.23727 34991 ft 628 kts 77°
2026-05-07 11:01 39.33805 -87.12663 35005 ft 629 kts 78°
2026-05-07 11:02 39.35634 -87.01609 34993 ft 629 kts 77°
2026-05-07 11:02 39.37469 -86.90551 34997 ft 629 kts 77°
2026-05-07 11:03 39.39229 -86.79548 34987 ft 629 kts 77°
2026-05-07 11:03 39.41025 -86.68493 34999 ft 628 kts 76°
2026-05-07 11:04 39.42283 -86.63105 34954 ft 624 kts 61°
2026-05-07 11:04 39.44416 -86.58295 34971 ft 611 kts 49°
2026-05-07 11:04 39.49335 -86.49352 35010 ft 611 kts 49°
2026-05-07 11:05 39.53982 -86.40075 34989 ft 615 kts 52°
2026-05-07 11:05 39.58421 -86.30662 34989 ft 616 kts 53°
2026-05-07 11:06 39.62792 -86.21189 34986 ft 615 kts 53°
2026-05-07 11:06 39.67192 -86.11660 34992 ft 615 kts 53°
2026-05-07 11:07 39.71599 -86.02136 34983 ft 615 kts 53°
2026-05-07 11:07 39.76014 -85.92606 34984 ft 614 kts 53°
2026-05-07 11:08 39.80403 -85.83144 34971 ft 614 kts 53°
2026-05-07 11:08 39.84819 -85.73638 34983 ft 614 kts 53°
2026-05-07 11:09 39.89249 -85.64110 34974 ft 614 kts 53°
2026-05-07 11:09 39.93593 -85.54527 34976 ft 614 kts 53°
2026-05-07 11:10 39.97929 -85.44946 34966 ft 613 kts 53°
2026-05-07 11:10 40.02322 -85.35478 34961 ft 609 kts 47°
2026-05-07 11:11 40.05088 -85.31439 34692 ft 590 kts 29°
2026-05-07 11:11 40.08445 -85.28599 34236 ft 560 kts 12°
2026-05-07 11:11 40.11980 -85.26747 33858 ft 539 kts
2026-05-07 11:11 40.15481 -85.24998 33489 ft 538 kts
2026-05-07 11:12 40.18932 -85.23068 33077 ft 540 kts 12°
2026-05-07 11:12 40.22337 -85.20978 32659 ft 540 kts 13°
2026-05-07 11:12 40.25692 -85.18804 32238 ft 537 kts 14°
2026-05-07 11:12 40.29014 -85.16584 31831 ft 533 kts 15°
2026-05-07 11:13 40.32296 -85.14372 31416 ft 529 kts 15°
2026-05-07 11:13 40.35559 -85.12161 31003 ft 525 kts 16°
2026-05-07 11:13 40.38851 -85.10311 30547 ft 498 kts
2026-05-07 11:13 40.42106 -85.09844 30072 ft 457 kts 342°
2026-05-07 11:14 40.45046 -85.10769 29557 ft 419 kts 323°
2026-05-07 11:14 40.47629 -85.12404 29181 ft 410 kts 320°
2026-05-07 11:14 40.50161 -85.14107 28794 ft 407 kts 321°
2026-05-07 11:14 40.52678 -85.15747 28378 ft 400 kts 321°
2026-05-07 11:15 40.54951 -85.17650 27878 ft 374 kts 307°
2026-05-07 11:15 40.56609 -85.20098 27397 ft 347 kts 296°
2026-05-07 11:15 40.57748 -85.22762 26963 ft 322 kts 284°
2026-05-07 11:15 40.58446 -85.25505 26570 ft 314 kts 282°
2026-05-07 11:16 40.59142 -85.28216 26182 ft 310 kts 281°
2026-05-07 11:16 40.59769 -85.30908 25781 ft 306 kts 279°
2026-05-07 11:16 40.60257 -85.33618 25376 ft 304 kts 275°
2026-05-07 11:16 40.60557 -85.36366 24978 ft 304 kts 270°
2026-05-07 11:17 40.60632 -85.39166 24574 ft 308 kts 265°
2026-05-07 11:17 40.60456 -85.42003 23993 ft 313 kts 259°
2026-05-07 11:17 40.60008 -85.44761 23383 ft 311 kts 253°
2026-05-07 11:17 40.59402 -85.47487 22719 ft 309 kts 255°
2026-05-07 11:18 40.58953 -85.50253 22056 ft 308 kts 259°
2026-05-07 11:18 40.58638 -85.53004 21412 ft 300 kts 262°
2026-05-07 11:18 40.58529 -85.55718 20768 ft 295 kts 269°
2026-05-07 11:18 40.58773 -85.58385 20122 ft 293 kts 278°
2026-05-07 11:19 40.59447 -85.60912 19502 ft 294 kts 289°
2026-05-07 11:19 40.60552 -85.63202 18902 ft 299 kts 301°
2026-05-07 11:19 40.62008 -85.65175 18309 ft 303 kts 311°
2026-05-07 11:19 40.63719 -85.66773 17653 ft 308 kts 321°
2026-05-07 11:20 40.65725 -85.67872 16972 ft 319 kts 335°
2026-05-07 11:20 40.67945 -85.68346 16324 ft 327 kts 348°
2026-05-07 11:20 40.70233 -85.68225 15709 ft 333 kts
2026-05-07 11:20 40.72468 -85.67189 14986 ft 350 kts 25°
2026-05-07 11:21 40.74311 -85.65051 14328 ft 358 kts 49°
2026-05-07 11:21 40.75475 -85.62183 13762 ft 349 kts 64°
2026-05-07 11:21 40.76338 -85.59266 13203 ft 332 kts 65°
2026-05-07 11:21 40.77268 -85.56594 12602 ft 316 kts 60°
2026-05-07 11:22 40.78225 -85.54059 12055 ft 300 kts 60°
2026-05-07 11:22 40.79123 -85.51661 11624 ft 283 kts 60°
2026-05-07 11:22 40.79979 -85.49383 11191 ft 270 kts 60°
2026-05-07 11:22 40.80799 -85.47198 10768 ft 261 kts 60°
2026-05-07 11:23 40.81617 -85.45066 10257 ft 261 kts 59°
2026-05-07 11:23 40.82456 -85.42941 9645 ft 261 kts 59°
2026-05-07 11:23 40.83287 -85.40830 8996 ft 257 kts 59°
2026-05-07 11:23 40.84115 -85.38772 8362 ft 251 kts 54°
2026-05-07 11:24 40.85235 -85.37037 7635 ft 245 kts 41°
2026-05-07 11:24 40.86329 -85.35509 7009 ft 221 kts 43°
2026-05-07 11:24 40.87347 -85.34053 6346 ft 213 kts 42°
2026-05-07 11:24 40.88329 -85.32577 5628 ft 215 kts 47°
2026-05-07 11:25 40.89266 -85.31030 4943 ft 214 kts 47°
2026-05-07 11:25 40.90218 -85.29557 3872 ft 209 kts 47°
2026-05-07 11:25 40.91160 -85.28074 2800 ft 206 kts 45°
2026-05-07 11:25 40.92136 -85.26739 2101 ft 197 kts 43°
2026-05-07 11:26 40.93062 -85.25444 1790 ft 193 kts 42°
2026-05-07 11:26 40.94033 -85.24227 1425 ft 191 kts 41°
2026-05-07 11:26 40.94954 -85.22988 1122 ft 184 kts 44°
2026-05-07 11:26 40.95841 -85.21860 924 ft 174 kts 43°
2026-05-07 11:27 40.96681 -85.20769 826 ft 164 kts 43°
2026-05-07 11:27 40.97406 -85.19843 805 ft 108 kts 44°
2026-05-07 11:27 40.97701 -85.19458 805 ft 43 kts 45°
2026-05-07 11:27 40.97916 -85.19170 802 ft 43 kts 46°
2026-05-07 11:28 40.98117 -85.18918 803 ft 32 kts 44°
2026-05-07 11:28 40.98276 -85.18756 805 ft 28 kts 356°
2026-05-07 11:28 40.98448 -85.18815 807 ft 23 kts 343°
2026-05-07 11:28 40.98575 -85.18835 807 ft 7 kts 356°
2026-05-07 11:29 40.98580 -85.18835 807 ft 0 kts 356°